[[{"header":{"parameterUnit":"m.s-1","parameterCategory":1,"la1":30.2991,"la2":30.254,"lo1":-89.0895,"lo2":-89.0444,"dy":0.0017,"dx":0.0017,"nx":28,"ny":28,"refTime":"2025-08-25T09:00:00:Z","depth":0,"parameterNumber":2,"parameterNumberName":"U-component_of_WINDS"},"data":[0,0,0,0,0,0,0,0,0,0,0,0,0,0,0,0,0,0,0,0,0,0,0,0,0,0,0,0,0,0,0,0,0,0,0,0,0,0,0,0,0,0,0,0,0,0,0,0,0,0,0,0,0,0,0,0,0,0,0.2226,0.2227,0,0.2281,0.2282,0.2282,0.232,0.232,0.2321,0.2321,0.2376,0.2377,0.2378,0,0,0,0,0,0,0,0,0,0,0,0,0,0.2153,0.2154,0.2226,0.2227,0.2228,0.2281,0.2282,0.2282,0.232,0.232,0.2321,0.2321,0.2375,0.2377,0.2378,0,0,0,0,0,0,0,0,0,0,0,0,0,0.2194,0.2154,0.2226,0.2253,0.2256,0.2281,0.2282,0.2283,0.232,0.232,0.2321,0.2321,0.2375,0.2377,0.2379,0.2381,0,0,0.2384,0.2385,0,0,0,0,0,0,0,0,0.2191,0.2196,0.2248,0.2251,0.2254,0.2294,0.2276,0.2316,0.232,0.2296,0.2321,0.2321,0.2348,0.2352,0.2362,0.2384,0.2386,0.2384,0.2385,0.2386,0.2387,0,0,0,0,0,0,0,0.2189,0.2194,0.2248,0.2249,0.2253,0.2262,0.2268,0.2284,0.2319,0.2298,0.2301,0.2307,0.235,0.236,0.2363,0.2387,0.2384,0.2386,0.2387,0.2388,0.2412,0.2412,0,0,0,0,0,0,0.2182,0.2192,0.2246,0.225,0.2223,0.2263,0.227,0.2281,0.2319,0.2325,0.2306,0.2308,0.2356,0.2361,0.2365,0.237,0.2386,0.2388,0.2389,0.2413,0.2412,0.2412,0,0,0,0,0,0,0.218,0.2186,0.2244,0.2221,0.223,0.2263,0.2276,0.2282,0.2292,0.2325,0.2331,0.231,0.2357,0.2363,0.2377,0.2372,0.2389,0.239,0.2413,0.2412,0.2412,0.2379,0,0,0,0,0,0,0.2178,0.2185,0.2187,0.2221,0.2231,0.2255,0.2276,0.2283,0.2295,0.2298,0.233,0.2336,0.2358,0.2374,0.2378,0.2375,0.2392,0.2414,0.2413,0.2412,0.2381,0.2377,0.2375,0,0,0,0,0,0.2175,0.2176,0.2187,0.2193,0.2233,0.2254,0.226,0.2285,0.2294,0.2296,0.2317,0.2335,0.2372,0.2375,0.238,0.2377,0.2414,0.2413,0.2412,0.2382,0.2378,0.2375,0,0,0,0,0,0,0.214,0.2181,0.2194,0.2206,0.2226,0.2261,0.2264,0.228,0.2299,0.2301,0.2331,0.2338,0.2349,0.2365,0.2367,0.2381,0.2395,0.2395,0.237,0.2367,0.2364,0.2359,0.2393,0,0,0,0,0,0.2134,0.2148,0.2183,0.219,0.2199,0.2229,0.224,0.2257,0.228,0.2289,0.2311,0.2332,0.2349,0.2359,0.2376,0.2383,0.239,0.2384,0.2381,0.2378,0.2378,0.2382,0.2379,0.2409,0.2409,0.2409,0,0,0.2121,0.2145,0.2152,0.2183,0.2201,0.2214,0.2237,0.225,0.226,0.2291,0.2305,0.2322,0.2348,0.2358,0.2364,0.2372,0.2371,0.2377,0.2375,0.2376,0.2381,0.2378,0.2375,0.2408,0.2408,0.2408,0,0,0.2104,0.2124,0.2131,0.2149,0.2176,0.2196,0.2198,0.223,0.2242,0.2257,0.228,0.2292,0.232,0.2337,0.2349,0.2337,0.2354,0.2342,0.2326,0.233,0.2327,0.2325,0.232,0.2318,0.2342,0.2342,0.2342,0,0.2084,0.2105,0.2133,0.2145,0.2157,0.2186,0.2193,0.2209,0.224,0.2248,0.2257,0.2291,0.231,0.2325,0.2322,0.2331,0.2333,0.2338,0.2325,0.2324,0.2322,0.2318,0.2316,0.234,0.234,0.234,0.234,0,0.2079,0.2093,0.2096,0.2125,0.2139,0.2148,0.2176,0.2186,0.2203,0.2221,0.2236,0.226,0.2281,0.2286,0.2303,0.2303,0.2306,0.232,0.2334,0.2317,0.2313,0.2312,0.2338,0.2338,0.2339,0.2339,0,0,0.2041,0.2085,0.2086,0.2099,0.2131,0.2142,0.2153,0.2174,0.2181,0.2202,0.2211,0.2233,0.2246,0.2259,0.2278,0.2281,0.2269,0.2294,0.2295,0.2287,0.2269,0.2258,0.2256,0.228,0.228,0.228,0.2267,0,0.2028,0.2049,0.2074,0.2085,0.2098,0.2126,0.2134,0.2154,0.2172,0.2185,0.2205,0.222,0.2236,0.2244,0.2249,0.2269,0.2265,0.2271,0.2288,0.2288,0.228,0.2254,0.2242,0.2229,0.2265,0.2265,0.2265,0,0.2016,0.2035,0.2048,0.2077,0.2084,0.2091,0.2113,0.2125,0.2148,0.2161,0.2176,0.2195,0.2207,0.222,0.2236,0.2239,0.2248,0.2259,0.2259,0.2261,0.2275,0.2254,0.2225,0.2222,0.2263,0.2263,0.2263,0,0.1985,0.2014,0.2025,0.2036,0.2072,0.2076,0.2091,0.2115,0.2125,0.2144,0.2151,0.2171,0.2181,0.2195,0.2219,0.2227,0.2232,0.2248,0.2242,0.2241,0.2241,0.2241,0.2212,0.2248,0.2248,0.2249,0.2249,0,0.1968,0.1974,0.2012,0.2019,0.2027,0.2055,0.2062,0.2079,0.21,0.211,0.2135,0.2144,0.2175,0.2188,0.2207,0.2216,0.2221,0.2231,0.2236,0.2228,0.2227,0.2234,0.2235,0.2248,0.2248,0.2248,0.2248,0,0.1935,0.1961,0.1975,0.2007,0.2015,0.2019,0.2047,0.2054,0.2073,0.2086,0.209,0.212,0.2136,0.2161,0.2185,0.2198,0.2203,0.2212,0.2195,0.2198,0.219,0.219,0.2164,0.2162,0.22,0.22,0.22,0,0.1921,0.1927,0.196,0.1969,0.1983,0.1996,0.2008,0.2035,0.2046,0.2072,0.2076,0.2094,0.2109,0.2133,0.2157,0.2174,0.2183,0.2173,0.2186,0.2178,0.2182,0.218,0.2181,0.2169,0.2169,0.2168,0.2168,0,0.1894,0.1907,0.1922,0.1942,0.1954,0.1971,0.1989,0.1995,0.2027,0.2037,0.2054,0.2066,0.2089,0.2106,0.2127,0.2142,0.216,0.2164,0.2163,0.2155,0.2145,0.2149,0.2186,0.2164,0.2164,0.2165,0.2165,0.2165,0.187,0.1876,0.19,0.1916,0.1932,0.1948,0.1956,0.1977,0.1991,0.2012,0.2028,0.2043,0.2065,0.2095,0.2109,0.2121,0.2129,0.2128,0.2128,0.2127,0.2124,0.2144,0.2125,0.2125,0.2125,0.2125,0.2125,0,0.1843,0.186,0.1874,0.1899,0.1911,0.1927,0.1948,0.1957,0.197,0.1989,0.2004,0.2022,0.2039,0.2063,0.2082,0.2086,0.2095,0.209,0.2089,0.2092,0.2116,0.2114,0.2083,0.2083,0.2083,0.2083,0.2083,0.2083,0.183,0.1841,0.1856,0.1874,0.1891,0.1906,0.1916,0.1931,0.1946,0.1966,0.1979,0.1996,0.2017,0.2037,0.2052,0.2059,0.2064,0.2056,0.2065,0.2087,0.2091,0.2094,0.2093,0.2057,0.2057,0.204,0.204,0.204]},{"header":{"parameterUnit":"m.s-1","parameterCategory":1,"la1":30.2991,"la2":30.254,"lo1":-89.0895,"lo2":-89.0444,"dy":0.0017,"dx":0.0017,"nx":28,"ny":28,"refTime":"2025-08-25T09:00:00:Z","depth":0,"parameterNumber":3,"parameterNumberName":"V-component_of_WINDS"},"data":[0,0,0,0,0,0,0,0,0,0,0,0,0,0,0,0,0,0,0,0,0,0,0,0,0,0,0,0,0,0,0,0,0,0,0,0,0,0,0,0,0,0,0,0,0,0,0,0,0,0,0,0,0,0,0,0,0,0,1.9071,1.9071,0,1.9041,1.9041,1.904,1.8972,1.8971,1.897,1.8968,1.8938,1.8939,1.8939,0,0,0,0,0,0,0,0,0,0,0,0,0,1.9071,1.9071,1.9071,1.9071,1.9071,1.9041,1.9041,1.904,1.8973,1.8971,1.8969,1.8968,1.8938,1.8939,1.8939,0,0,0,0,0,0,0,0,0,0,0,0,0,1.9059,1.9071,1.9071,1.9033,1.903,1.9041,1.9041,1.904,1.8973,1.8971,1.8969,1.8967,1.8938,1.8939,1.8939,1.8986,0,0,1.8942,1.8942,0,0,0,0,0,0,0,0,1.906,1.9059,1.9039,1.9036,1.9032,1.9008,1.9029,1.9022,1.8974,1.8995,1.8968,1.8966,1.8963,1.8962,1.8961,1.8984,1.8983,1.8942,1.8942,1.8942,1.8943,0,0,0,0,0,0,0,1.9061,1.906,1.9059,1.9039,1.9034,1.9018,1.9014,1.9028,1.8991,1.8993,1.8988,1.8985,1.8961,1.896,1.896,1.8983,1.8942,1.8942,1.8943,1.8943,1.9042,1.9044,0,0,0,0,0,0,1.9067,1.9061,1.906,1.9058,1.9041,1.9019,1.9015,1.9018,1.8991,1.8984,1.8987,1.8982,1.896,1.8959,1.8958,1.901,1.8942,1.8943,1.8944,1.9039,1.9042,1.9044,0,0,0,0,0,0,1.9067,1.9067,1.9061,1.9058,1.9056,1.9022,1.9026,1.9018,1.9018,1.8986,1.8979,1.8993,1.8958,1.8957,1.8979,1.9008,1.8943,1.8944,1.9037,1.904,1.9043,1.9115,0,0,0,0,0,0,1.9067,1.9068,1.9085,1.9059,1.9057,1.9083,1.9027,1.9019,1.9019,1.9012,1.899,1.8984,1.8957,1.8978,1.898,1.9008,1.8945,1.9034,1.9038,1.9042,1.911,1.912,1.9129,0,0,0,0,0,1.9068,1.9107,1.9087,1.9087,1.9078,1.9085,1.9083,1.905,1.9022,1.9039,1.9018,1.8985,1.9005,1.8981,1.8982,1.9011,1.9032,1.9037,1.9042,1.9105,1.9118,1.9129,0,0,0,0,0,0,1.9138,1.9103,1.908,1.9112,1.9102,1.9073,1.9094,1.9065,1.9063,1.9057,1.9016,1.9012,1.9039,1.9027,1.9002,1.9054,1.9013,1.9018,1.9061,1.9073,1.9082,1.9084,1.8945,0,0,0,0,0,1.9157,1.9166,1.9135,1.9166,1.9162,1.9129,1.9131,1.9106,1.9094,1.909,1.9071,1.9061,1.9064,1.9068,1.907,1.9108,1.9101,1.9128,1.9137,1.9145,1.9151,1.9169,1.918,1.9061,1.906,1.906,0,0,1.9197,1.9179,1.9187,1.918,1.9169,1.9179,1.9126,1.9139,1.9146,1.9092,1.9111,1.9097,1.9083,1.9113,1.9125,1.9104,1.9182,1.9152,1.9158,1.9159,1.9175,1.9186,1.9197,1.9064,1.9063,1.9063,0,0,1.9275,1.9262,1.9286,1.9276,1.926,1.9238,1.9244,1.922,1.9208,1.9227,1.9186,1.9194,1.9201,1.9193,1.9189,1.9263,1.9232,1.9264,1.9315,1.9333,1.9342,1.9351,1.9376,1.9386,1.9269,1.927,1.927,0,1.9326,1.9339,1.9303,1.9318,1.9315,1.9267,1.9291,1.9283,1.9269,1.9268,1.9245,1.9252,1.9239,1.9266,1.9284,1.9283,1.9288,1.9267,1.9344,1.9352,1.9359,1.9383,1.9393,1.9274,1.9273,1.9273,1.9272,0,1.9403,1.9413,1.9434,1.9421,1.9421,1.9441,1.9407,1.9412,1.9387,1.9367,1.9386,1.9369,1.9366,1.937,1.9347,1.9394,1.9381,1.9351,1.9309,1.9375,1.9397,1.9406,1.9279,1.9278,1.9277,1.9276,0,0,1.9525,1.949,1.9499,1.9492,1.947,1.9477,1.9494,1.9491,1.9495,1.9487,1.95,1.9507,1.9479,1.9476,1.945,1.9466,1.9525,1.9434,1.9433,1.9451,1.9575,1.9597,1.9609,1.9504,1.9506,1.9507,1.9576,0,1.9597,1.9624,1.9591,1.9626,1.9634,1.9587,1.9602,1.959,1.9572,1.9576,1.9556,1.9561,1.9524,1.9522,1.9535,1.9515,1.9549,1.9509,1.9516,1.9516,1.9521,1.962,1.9644,1.971,1.9584,1.9586,1.9587,0,1.9685,1.968,1.9715,1.9691,1.9693,1.9707,1.97,1.9705,1.9691,1.9676,1.9672,1.9641,1.9656,1.9615,1.9635,1.9609,1.9609,1.9599,1.9601,1.96,1.9556,1.9622,1.973,1.974,1.96,1.9599,1.9598,0,1.977,1.9772,1.9793,1.9789,1.9761,1.9771,1.976,1.9744,1.9744,1.9738,1.9737,1.9734,1.9732,1.973,1.9699,1.9673,1.9723,1.9679,1.9711,1.9712,1.9724,1.9723,1.9833,1.9725,1.9725,1.9724,1.9724,0,1.9854,1.9877,1.983,1.9843,1.9868,1.983,1.9855,1.9839,1.9824,1.9833,1.9793,1.9802,1.9761,1.9765,1.9741,1.9761,1.9761,1.9749,1.9742,1.9753,1.9754,1.9752,1.9747,1.9727,1.9726,1.9726,1.9725,0,1.9953,1.9922,1.9942,1.9914,1.9907,1.9926,1.9902,1.9912,1.9891,1.9903,1.9903,1.987,1.9873,1.9842,1.984,1.9824,1.9854,1.984,1.9859,1.9855,1.9888,1.9885,2.0,2.0013,1.9897,1.9898,1.9899,0,2.0008,2.0025,1.9998,2.0001,1.9991,1.9997,1.9996,1.9959,1.996,1.9944,1.9957,1.9956,1.9954,1.9962,1.9938,1.9935,1.992,1.9961,1.992,1.9929,1.992,1.992,1.9921,1.9969,1.9971,1.9972,1.9973,0,2.011,2.0094,2.0094,2.0089,2.0089,2.0084,2.0076,2.008,2.004,2.0043,2.0045,2.0044,2.0041,2.0041,2.0034,2.0022,1.9991,1.9986,1.9993,2.0004,2.0014,2.0009,1.9883,1.9984,1.9983,1.9982,1.9981,1.9981,2.0188,2.02,2.0183,2.0185,2.0174,2.0167,2.0176,2.0155,2.0157,2.0151,2.0129,2.0136,2.012,2.0107,2.0098,2.0103,2.0083,2.0093,2.0096,2.0099,2.0105,2.0014,2.0101,2.0101,2.01,2.01,2.01,0,2.0287,2.0274,2.0276,2.0265,2.0266,2.0236,2.0225,2.0228,2.0234,2.0222,2.0221,2.0223,2.0223,2.0199,2.0195,2.0203,2.0189,2.0204,2.0203,2.0201,2.0123,2.0117,2.0216,2.0216,2.0216,2.0215,2.0215,2.0215,2.0339,2.0358,2.034,2.0353,2.0339,2.0345,2.0341,2.0334,2.0324,2.0329,2.0329,2.0312,2.0295,2.029,2.0288,2.0281,2.0282,2.0301,2.0289,2.0217,2.0206,2.0195,2.019,2.0302,2.0302,2.0366,2.0367,2.0368]}]]